QPF
0.00 0.00 0.00 0.00 0.00 0.00 0.00 0.00 0.01 0.00 0.00 0.00 0.00 0.00 0.01 0.01 0.00 0.00 0.00 0.00 0.01 0.05 0.07 0.03 0.04 0.05 0.02 0.02 0.01 0.01 0.01 0.00 0.00 0.00 0.00 0.00 0.00 0.01 0.02 0.00 0.00 0.00 0.00
0.00 0.00 0.00 0.00 0.00 0.00 0.00 0.00 0.00 0.00 0.00 0.00 0.00 0.00 0.01 0.01 0.00 0.00 0.00 0.00 0.00 0.03 0.02 0.01 0.04 0.05 0.04 0.03 0.03 0.01 0.01 0.00 0.00 0.00 0.00 0.00 0.00 0.00 0.00 0.00 0.00 0.00 0.00
0.00 0.00 0.00 0.00 0.00 0.00 0.00 0.00 0.00 0.00 0.00 0.00 0.00 0.00 0.00 0.00 0.00 0.00 0.00 0.00 0.00 0.00 0.00 0.00 0.00 0.01 0.03 0.03 0.03 0.00 0.00 0.00 0.00 0.00 0.01 0.00 0.00 0.00 0.00 0.00 0.00 0.00 0.00
0.00 0.00 0.00 0.00 0.00 0.00 0.00 0.00 0.00 0.00 0.00 0.00 0.00 0.00 0.00 0.00 0.00 0.00 0.00 0.00 0.00 0.00 0.00 0.00 0.00 0.00 0.01 0.05 0.05 0.01 0.00 0.00 0.01 0.01 0.00 0.00 0.00 0.00 0.00 0.00 0.00 0.00 0.00
0.00 0.00 0.00 0.00 0.00 0.00 0.00 0.00 0.00 0.00 0.00 0.00 0.00 0.00 0.00 0.00 0.00 0.02 0.05 0.07 0.06 0.00 0.00 0.00 0.01 0.00 0.00 0.19 0.09 0.02 0.00 0.00 0.01 0.00 0.00 0.02 0.00 0.00 0.01 0.00 0.00 0.00 0.00
0.00 0.00 0.00 0.00 0.00 0.00 0.00 0.00 0.00 0.00 0.00 0.00 0.00 0.00 0.00 0.00 0.00 0.00 0.00 0.01 0.05 0.04 0.05 0.09 0.00 0.01 0.00 0.19 0.06 0.01 0.00 0.02 0.00 0.00 0.01 0.01 0.00 0.00 0.00 0.00 0.00 0.00 0.00
0.00 0.00 0.00 0.00 0.03 0.02 0.01 0.00 0.00 0.00 0.00 0.00 0.00 0.00 0.00 0.00 0.00 0.00 0.00 0.01 0.01 0.05 0.10 0.07 0.02 0.01 0.00 0.08 0.03 0.02 0.02 0.01 0.00 0.00 0.00 0.01 0.00 0.00 0.00 0.00 0.01 0.00 0.01
0.00 0.00 0.00 0.00 0.00 0.00 0.01 0.00 0.00 0.00 0.00 0.00 0.00 0.00 0.00 0.00 0.00 0.00 0.00 0.01 0.00 0.02 0.07 0.04 0.05 0.01 0.01 0.03 0.05 0.02 0.04 0.01 0.00 0.00 0.00 0.00 0.00 0.01 0.00 0.00 0.00 0.00 0.00
0.00 0.00 0.00 0.00 0.00 0.00 0.00 0.00 0.00 0.00 0.00 0.00 0.00 0.00 0.00 0.00 0.00 0.00 0.00 0.00 0.01 0.03 0.07 0.12 0.06 0.06 0.01 0.00 0.16 0.03 0.01 0.05 0.01 0.02 0.01 0.00 0.01 0.03 0.01 0.00 0.00 0.00 0.00
0.00 0.00 0.00 0.00 0.00 0.00 0.00 0.02 0.00 0.00 0.00 0.00 0.00 0.00 0.00 0.00 0.00 0.00 0.00 0.00 0.01 0.01 0.07 0.13 0.14 0.05 0.02 0.01 0.03 0.05 0.00 0.12 0.02 0.01 0.06 0.00 0.01 0.03 0.05 0.01 0.00 0.00 0.00
0.00 0.00 0.00 0.00 0.00 0.00 0.01 0.01 0.01 0.00 0.00 0.00 0.00 0.00 0.00 0.00 0.00 0.00 0.00 0.00 0.00 0.01 0.05 0.11 0.12 0.12 0.04 0.03 0.02 0.00 0.00 0.01 0.00 0.01 0.06 0.00 0.02 0.03 0.09 0.02 0.00 0.00 0.01
0.00 0.00 0.00 0.00 0.00 0.00 0.00 0.00 0.02 0.01 0.00 0.00 0.00 0.00 0.00 0.00 0.00 0.00 0.00 0.00 0.00 0.00 0.00 0.02 0.13 0.13 0.05 0.00 0.05 0.01 0.00 0.00 0.00 0.00 0.00 0.00 0.01 0.02 0.08 0.08 0.04 0.00 0.00
0.00 0.00 0.00 0.00 0.00 0.00 0.01 0.06 0.10 0.02 0.05 0.03 0.01 0.02 0.03 0.01 0.00 0.00 0.00 0.00 0.00 0.00 0.01 0.00 0.05 0.07 0.07 0.02 0.00 0.01 0.00 0.00 0.00 0.00 0.00 0.06 0.03 0.00 0.03 0.13 0.09 0.01 0.00
0.00 0.00 0.00 0.00 0.00 0.01 0.05 0.05 0.06 0.06 0.11 0.13 0.19 0.30 0.25 0.18 0.04 0.00 0.00 0.00 0.00 0.00 0.00 0.02 0.05 0.05 0.01 0.03 0.00 0.00 0.00 0.00 0.00 0.00 0.00 0.01 0.04 0.01 0.02 0.16 0.11 0.04 0.02
0.00 0.00 0.00 0.00 0.00 0.03 0.04 0.02 0.02 0.01 0.02 0.11 0.16 0.24 0.14 0.22 0.13 0.02 0.00 0.00 0.00 0.00 0.00 0.04 0.04 0.02 0.01 0.04 0.05 0.01 0.00 0.00 0.00 0.00 0.00 0.03 0.14 0.06 0.12 0.17 0.04 0.01 0.00
0.00 0.00 0.00 0.00 0.03 0.02 0.02 0.04 0.02 0.02 0.08 0.01 0.05 0.14 0.17 0.18 0.15 0.07 0.02 0.01 0.00 0.00 0.00 0.04 0.02 0.01 0.03 0.04 0.06 0.02 0.00 0.00 0.00 0.00 0.00 0.01 0.09 0.09 0.14 0.12 0.21 0.09 0.02
0.00 0.00 0.01 0.00 0.00 0.01 0.03 0.01 0.01 0.01 0.01 0.00 0.02 0.05 0.09 0.06 0.09 0.10 0.06 0.01 0.03 0.03 0.02 0.04 0.06 0.04 0.04 0.03 0.01 0.00 0.02 0.02 0.00 0.00 0.00 0.00 0.01 0.09 0.10 0.11 0.19 0.31 0.19
0.02 0.00 0.00 0.00 0.00 0.00 0.00 0.00 0.01 0.00 0.00 0.00 0.00 0.00 0.01 0.03 0.02 0.00 0.00 0.00 0.02 0.01 0.00 0.01 0.03 0.01 0.06 0.11 0.14 0.03 0.03 0.08 0.04 0.03 0.00 0.00 0.00 0.00 0.04 0.03 0.12 0.24 0.18
0.01 0.00 0.00 0.00 0.02 0.06 0.05 0.02 0.00 0.00 0.00 0.01 0.01 0.00 0.00 0.01 0.05 0.02 0.00 0.00 0.00 0.00 0.00 0.01 0.02 0.00 0.01 0.06 0.19 0.18 0.14 0.10 0.07 0.03 0.03 0.01 0.00 0.00 0.00 0.04 0.09 0.11 0.14
0.01 0.00 0.00 0.00 0.03 0.07 0.05 0.02 0.01 0.00 0.00 0.00 0.02 0.02 0.01 0.01 0.05 0.05 0.02 0.00 0.00 0.00 0.00 0.00 0.01 0.01 0.00 0.03 0.11 0.17 0.09 0.05 0.04 0.04 0.03 0.00 0.00 0.00 0.00 0.00 0.00 0.01 0.03
0.01 0.01 0.00 0.00 0.01 0.03 0.00 0.00 0.00 0.00 0.03 0.06 0.08 0.10 0.09 0.02 0.05 0.06 0.06 0.01 0.00 0.00 0.00 0.03 0.03 0.03 0.00 0.01 0.07 0.09 0.11 0.00 0.00 0.00 0.00 0.00 0.00 0.00 0.00 0.00 0.00 0.00 0.01
0.01 0.00 0.01 0.00 0.00 0.00 0.00 0.00 0.00 0.04 0.03 0.06 0.15 0.07 0.07 0.04 0.05 0.08 0.09 0.11 0.03 0.00 0.00 0.04 0.03 0.01 0.00 0.02 0.05 0.09 0.10 0.02 0.00 0.00 0.00 0.00 0.00 0.00 0.00 0.00 0.00 0.00 0.00
0.00 0.00 0.00 0.00 0.02 0.00 0.00 0.00 0.00 0.02 0.04 0.02 0.01 0.00 0.01 0.01 0.00 0.03 0.03 0.06 0.20 0.18 0.05 0.13 0.10 0.04 0.01 0.03 0.02 0.06 0.07 0.03 0.00 0.00 0.00 0.00 0.00 0.00 0.00 0.00 0.00 0.00 0.00
0.00 0.00 0.00 0.00 0.00 0.00 0.00 0.00 0.00 0.02 0.02 0.00 0.00 0.00 0.00 0.00 0.00 0.00 0.00 0.00 0.04 0.22 0.15 0.04 0.12 0.09 0.02 0.02 0.01 0.02 0.01 0.00 0.00 0.00 0.00 0.00 0.00 0.00 0.00 0.00 0.00 0.00 0.00
0.00 0.00 0.00 0.00 0.00 0.00 0.00 0.00 0.00 0.00 0.00 0.00 0.00 0.00 0.00 0.00 0.00 0.00 0.00 0.00 0.00 0.04 0.08 0.04 0.07 0.10 0.06 0.01 0.01 0.01 0.03 0.04 0.00 0.00 0.00 0.00 0.00 0.00 0.00 0.00 0.00 0.00 0.00
0.00 0.00 0.00 0.00 0.02 0.01 0.01 0.00 0.00 0.00 0.00 0.00 0.00 0.00 0.00 0.00 0.00 0.00 0.00 0.00 0.00 0.00 0.03 0.06 0.07 0.11 0.10 0.04 0.02 0.02 0.04 0.05 0.04 0.03 0.03 0.02 0.00 0.00 0.00 0.00 0.00 0.00 0.00
MSLP
1013.01 1013.21 1013.75 1013.98 1014.24 1014.43 1014.66 1014.82 1015.01 1015.08 1015.15 1015.47 1015.73 1016.00 1016.28 1016.60 1016.88 1017.02 1017.20 1017.45 1017.58 1017.86 1018.05 1018.15 1018.23 1018.29 1018.56 1018.59 1018.72 1018.92 1019.09 1019.22 1019.40 1019.62 1019.62 1019.82 1019.99 1020.09 1020.14 1020.32 1020.32 1020.17 1020.73
1012.73 1013.30 1014.00 1014.15 1014.40 1014.60 1014.88 1015.12 1015.28 1015.41 1015.50 1015.72 1016.13 1016.23 1016.46 1016.78 1016.99 1017.29 1017.54 1017.62 1017.75 1017.94 1018.18 1018.31 1018.36 1018.45 1018.62 1018.75 1018.93 1019.03 1019.22 1019.31 1019.48 1019.74 1019.84 1020.06 1020.25 1020.33 1020.25 1020.44 1020.41 1020.70 1020.93
1012.75 1013.36 1013.86 1014.12 1014.37 1014.72 1015.02 1015.29 1015.51 1015.74 1015.94 1016.09 1016.41 1016.63 1016.85 1017.03 1017.24 1017.45 1017.72 1017.87 1017.95 1018.05 1018.31 1018.41 1018.52 1018.62 1018.75 1019.05 1019.12 1019.21 1019.37 1019.54 1019.57 1019.83 1019.97 1019.73 1020.04 1020.51 1020.57 1020.70 1020.86 1021.12 1021.19
1012.44 1013.07 1013.79 1014.45 1014.63 1014.93 1015.21 1015.36 1015.70 1015.86 1016.19 1016.44 1016.63 1016.89 1017.19 1017.30 1017.53 1017.70 1017.88 1018.08 1018.15 1018.22 1018.41 1018.49 1018.59 1018.77 1018.90 1019.13 1019.35 1019.49 1019.57 1019.69 1019.81 1020.09 1019.87 1019.90 1020.06 1020.78 1020.80 1020.90 1021.14 1021.30 1021.48
1012.82 1013.30 1013.89 1014.53 1014.82 1015.15 1015.45 1015.72 1015.88 1016.10 1016.32 1016.71 1016.96 1017.15 1017.41 1017.47 1017.70 1017.90 1018.01 1018.22 1018.31 1018.31 1018.51 1018.54 1018.61 1018.78 1018.98 1019.30 1019.40 1019.62 1019.82 1019.84 1020.03 1020.20 1020.09 1020.19 1020.08 1020.79 1020.99 1021.16 1021.43 1021.54 1021.58
1012.92 1013.37 1014.26 1014.75 1015.15 1015.37 1015.62 1015.82 1016.09 1016.30 1016.51 1016.90 1017.03 1017.25 1017.44 1017.62 1017.75 1018.01 1018.18 1018.32 1018.48 1018.59 1018.44 1018.54 1018.65 1018.74 1019.11 1019.33 1019.44 1019.74 1019.96 1020.10 1020.31 1020.17 1020.36 1020.59 1020.37 1020.83 1021.10 1021.32 1021.52 1021.72 1021.84
1013.21 1013.48 1014.18 1014.71 1014.91 1015.18 1015.55 1015.85 1016.15 1016.44 1016.69 1016.94 1017.17 1017.42 1017.65 1017.82 1017.88 1018.01 1018.21 1018.33 1018.41 1018.35 1018.45 1018.69 1018.76 1018.83 1019.02 1019.35 1019.48 1019.82 1020.01 1020.18 1020.27 1020.45 1020.36 1020.53 1020.67 1021.01 1021.15 1021.39 1021.64 1021.90 1022.06
1013.28 1013.58 1014.07 1014.71 1015.08 1015.41 1015.66 1016.03 1016.34 1016.66 1016.87 1017.06 1017.31 1017.51 1017.78 1018.00 1018.12 1018.14 1018.29 1018.44 1018.48 1018.53 1018.57 1018.74 1018.84 1018.94 1019.10 1019.35 1019.60 1019.82 1020.02 1020.28 1020.48 1020.47 1020.52 1020.64 1020.93 1021.17 1021.24 1021.50 1021.70 1021.93 1022.06
1013.55 1013.66 1014.06 1014.62 1015.18 1015.57 1015.80 1016.06 1016.35 1016.63 1016.91 1017.15 1017.42 1017.63 1017.82 1018.12 1018.32 1018.48 1018.58 1018.64 1018.66 1018.68 1018.72 1018.88 1018.92 1018.92 1019.10 1019.34 1019.49 1019.91 1020.06 1020.22 1020.34 1020.43 1020.54 1020.66 1021.10 1021.21 1021.26 1021.62 1021.77 1021.94 1022.11
1013.70 1013.74 1014.18 1014.63 1015.05 1015.40 1015.72 1016.13 1016.37 1016.67 1017.10 1017.36 1017.52 1017.78 1017.91 1018.21 1018.40 1018.57 1018.66 1018.70 1018.67 1018.72 1018.74 1019.00 1018.90 1019.06 1019.16 1019.31 1019.65 1019.74 1020.05 1020.13 1020.12 1020.27 1020.61 1020.49 1021.08 1021.25 1021.27 1021.54 1021.81 1021.95 1022.13
1013.87 1014.36 1014.55 1014.76 1015.11 1015.37 1015.72 1015.83 1016.31 1016.64 1016.95 1017.29 1017.65 1017.90 1018.00 1017.86 1018.10 1018.31 1018.36 1018.66 1018.63 1018.72 1018.81 1018.95 1019.06 1019.14 1019.21 1019.23 1019.55 1019.77 1020.01 1019.93 1019.90 1020.07 1020.48 1020.77 1021.07 1021.13 1021.33 1021.41 1021.71 1021.95 1022.14
1013.94 1014.57 1014.69 1014.67 1014.93 1015.31 1015.44 1015.77 1015.88 1016.21 1016.49 1016.88 1017.26 1017.54 1017.67 1017.85 1018.25 1018.36 1018.45 1018.69 1018.60 1018.63 1018.77 1018.85 1019.09 1019.20 1019.47 1019.28 1019.51 1019.70 1019.80 1019.78 1019.87 1020.02 1020.10 1020.69 1020.94 1021.03 1021.24 1021.37 1021.58 1021.98 1022.16
1013.74 1014.31 1014.46 1014.67 1014.95 1015.10 1015.35 1015.55 1015.99 1016.13 1016.56 1016.95 1017.31 1017.64 1017.94 1018.01 1018.24 1018.32 1018.20 1018.25 1018.42 1018.55 1018.25 1018.46 1018.79 1018.97 1019.13 1019.47 1019.24 1019.61 1019.68 1019.70 1019.66 1019.78 1019.82 1020.50 1020.74 1020.88 1021.09 1021.35 1021.70 1021.88 1022.11
1013.78 1013.85 1014.26 1014.59 1014.87 1015.31 1015.44 1015.40 1015.74 1016.16 1016.46 1016.86 1017.26 1017.54 1017.78 1018.10 1018.18 1018.29 1018.13 1018.16 1018.26 1018.19 1018.22 1018.31 1018.77 1018.99 1019.17 1019.23 1019.50 1019.39 1019.64 1019.48 1019.56 1019.52 1019.64 1020.18 1020.34 1020.62 1020.80 1021.08 1021.33 1021.68 1021.86
1013.73 1013.88 1014.34 1014.83 1014.99 1015.22 1015.31 1015.51 1015.64 1015.96 1016.23 1016.66 1016.98 1017.28 1017.68 1018.09 1018.33 1017.93 1017.94 1018.00 1017.99 1018.09 1018.19 1018.36 1018.41 1018.66 1018.85 1019.06 1019.11 1019.26 1019.11 1019.25 1019.36 1019.33 1019.32 1019.77 1019.99 1020.17 1020.52 1020.83 1021.28 1021.42 1021.51
1013.81 1014.14 1014.45 1014.66 1015.10 1015.28 1015.71 1015.70 1015.71 1015.91 1016.10 1016.44 1016.90 1017.01 1017.23 1017.85 1017.98 1017.86 1017.67 1017.71 1017.76 1017.86 1017.88 1018.07 1018.20 1018.47 1018.57 1018.81 1018.84 1018.90 1019.03 1018.90 1019.03 1019.08 1018.95 1019.08 1019.47 1019.63 1020.11 1020.43 1020.76 1020.85 1021.14
1013.62 1014.09 1014.47 1014.59 1014.61 1015.35 1015.57 1015.47 1015.70 1015.79 1015.98 1016.12 1016.37 1016.66 1016.90 1016.90 1017.06 1017.39 1017.54 1017.41 1017.38 1017.68 1017.59 1017.76 1017.83 1018.17 1018.29 1018.36 1018.65 1018.59 1018.81 1018.83 1018.81 1018.80 1018.82 1018.93 1018.96 1019.33 1019.60 1020.04 1020.25 1020.45 1020.80
1013.58 1013.92 1014.36 1014.53 1014.69 1015.08 1015.36 1015.43 1015.39 1015.45 1015.64 1015.80 1015.93 1016.18 1016.57 1016.77 1016.83 1016.95 1017.20 1017.17 1017.23 1017.59 1017.55 1017.47 1017.79 1017.90 1018.07 1018.27 1018.42 1018.39 1018.36 1018.45 1018.48 1018.51 1018.66 1018.60 1018.68 1018.74 1019.03 1019.47 1019.77 1020.14 1020.63
1013.26 1013.76 1013.89 1014.26 1014.61 1014.82 1015.08 1015.21 1015.45 1015.65 1015.67 1015.62 1015.88 1015.91 1016.20 1016.51 1016.59 1016.75 1016.57 1016.69 1017.19 1017.17 1017.27 1017.33 1017.52 1017.70 1017.61 1017.96 1018.11 1018.20 1018.16 1018.11 1018.04 1018.13 1018.23 1018.34 1018.38 1018.52 1018.52 1018.69 1019.28 1019.64 1019.98
1013.32 1013.70 1014.10 1013.86 1014.30 1014.75 1014.94 1015.34 1015.59 1015.71 1015.71 1015.71 1015.74 1015.92 1016.18 1016.24 1016.42 1016.64 1016.65 1016.52 1016.85 1016.92 1016.98 1017.11 1017.28 1017.46 1017.47 1017.57 1017.81 1017.83 1017.92 1017.84 1017.76 1017.85 1017.72 1018.05 1018.07 1018.29 1018.38 1018.67 1018.73 1018.89 1019.32
1013.57 1013.51 1014.04 1014.00 1013.97 1014.44 1014.82 1015.19 1015.23 1014.95 1015.22 1015.54 1015.73 1015.94 1016.05 1016.09 1016.01 1016.08 1016.02 1016.24 1016.33 1016.58 1016.65 1016.84 1017.02 1017.15 1017.26 1017.37 1017.57 1017.65 1017.70 1017.84 1017.65 1017.59 1017.52 1017.64 1017.79 1017.69 1018.12 1018.35 1018.45 1018.37 1018.32
1013.19 1013.26 1012.77 1013.71 1013.96 1014.26 1014.44 1014.84 1015.22 1015.39 1015.47 1015.58 1015.64 1015.64 1015.65 1015.62 1015.68 1015.69 1015.91 1015.83 1016.03 1016.22 1016.36 1016.46 1016.66 1016.70 1016.89 1017.09 1017.04 1017.39 1017.32 1017.21 1017.14 1017.19 1017.10 1017.12 1017.43 1017.08 1017.27 1017.58 1017.83 1018.01 1018.03
1012.83 1012.79 1012.97 1013.67 1013.62 1013.80 1014.12 1014.77 1015.24 1015.55 1015.60 1015.49 1015.45 1015.46 1015.36 1015.18 1015.08 1015.18 1015.37 1015.43 1015.56 1015.88 1015.85 1015.91 1016.18 1016.44 1016.32 1016.85 1016.94 1016.94 1017.12 1016.93 1016.94 1016.83 1016.85 1016.73 1016.98 1016.92 1016.91 1017.17 1017.30 1017.39 1017.56
1012.44 1012.88 1013.15 1013.77 1013.74 1013.65 1014.19 1014.71 1014.96 1015.18 1015.15 1015.50 1015.45 1015.43 1015.25 1014.92 1014.71 1014.58 1014.63 1014.64 1015.06 1015.38 1015.64 1015.60 1015.97 1016.13 1016.24 1016.23 1016.86 1017.01 1017.06 1017.09 1016.98 1017.15 1016.74 1016.59 1016.83 1016.83 1016.86 1016.84 1016.99 1016.83 1017.00
1012.97 1012.70 1013.28 1013.27 1013.55 1013.70 1014.43 1014.84 1014.82 1014.87 1015.09 1015.30 1015.16 1015.18 1014.86 1014.64 1014.40 1014.16 1014.21 1014.23 1014.46 1014.90 1015.21 1015.42 1015.88 1015.79 1016.05 1015.70 1016.13 1016.41 1016.73 1016.98 1017.10 1017.23 1016.89 1016.72 1016.75 1016.53 1016.40 1016.32 1016.14 1016.19 1016.30
1012.10 1012.78 1012.56 1012.81 1013.19 1013.86 1014.58 1014.92 1015.13 1015.11 1015.09 1015.15 1015.29 1015.19 1015.08 1014.50 1014.25 1014.03 1013.90 1013.84 1013.90 1014.20 1014.52 1014.94 1015.30 1015.60 1015.55 1015.63 1015.80 1016.00 1016.13 1016.27 1016.45 1016.69 1016.75 1016.79 1016.46 1016.09 1016.04 1015.96 1015.98 1015.87 1016.00
Thickness
5784 5785 5782 5781 5780 5780 5778 5777 5774 5774 5775 5775 5772 5772 5770 5767 5765 5764 5762 5761 5762 5760 5760 5761 5762 5762 5760 5760 5759 5758 5756 5757 5756 5753 5754 5753 5751 5749 5747 5744 5743 5743 5739
5788 5782 5778 5779 5778 5778 5776 5774 5772 5771 5772 5773 5769 5769 5767 5765 5763 5761 5759 5759 5759 5759 5758 5759 5761 5761 5760 5760 5759 5759 5756 5757 5756 5753 5753 5752 5750 5749 5749 5745 5744 5741 5739
5788 5782 5780 5780 5778 5777 5777 5774 5772 5770 5770 5769 5766 5765 5763 5761 5759 5759 5757 5756 5757 5757 5756 5757 5758 5759 5758 5757 5758 5758 5757 5755 5756 5754 5753 5754 5752 5750 5749 5746 5743 5740 5738
5793 5786 5780 5776 5776 5774 5772 5772 5769 5769 5766 5764 5762 5761 5758 5759 5757 5756 5755 5754 5753 5754 5754 5756 5756 5757 5757 5756 5756 5756 5756 5755 5754 5753 5753 5754 5753 5749 5749 5747 5743 5741 5739
5790 5784 5779 5775 5773 5770 5767 5766 5766 5765 5763 5760 5758 5757 5755 5756 5755 5753 5752 5751 5751 5753 5752 5754 5755 5756 5756 5755 5754 5754 5754 5754 5752 5752 5752 5752 5754 5749 5748 5747 5743 5741 5740
5789 5783 5776 5771 5768 5766 5764 5763 5762 5761 5760 5756 5756 5755 5753 5753 5753 5752 5749 5749 5749 5750 5752 5752 5754 5755 5754 5754 5754 5753 5753 5752 5751 5751 5751 5750 5752 5750 5747 5746 5744 5741 5739
5784 5782 5776 5773 5771 5769 5766 5763 5761 5759 5757 5755 5753 5751 5750 5749 5750 5750 5749 5748 5748 5750 5751 5750 5751 5753 5754 5752 5752 5751 5752 5751 5750 5749 5750 5750 5750 5749 5747 5745 5743 5741 5738
5783 5780 5777 5772 5769 5767 5764 5760 5758 5755 5754 5753 5751 5750 5748 5747 5746 5748 5748 5747 5747 5747 5748 5749 5749 5750 5752 5751 5750 5750 5750 5750 5749 5748 5747 5748 5747 5746 5746 5744 5743 5741 5739
5778 5780 5777 5771 5767 5763 5760 5759 5757 5755 5752 5751 5749 5747 5746 5743 5742 5742 5742 5744 5745 5747 5748 5747 5748 5749 5750 5749 5747 5746 5748 5749 5748 5747 5747 5746 5745 5744 5745 5742 5741 5740 5739
5779 5779 5774 5769 5764 5761 5760 5757 5755 5753 5749 5746 5745 5743 5743 5740 5738 5738 5739 5740 5742 5744 5745 5745 5746 5747 5747 5747 5745 5744 5745 5748 5749 5748 5745 5747 5744 5743 5743 5741 5740 5739 5738
5776 5771 5767 5765 5763 5760 5758 5758 5753 5751 5748 5745 5741 5740 5740 5740 5738 5737 5738 5739 5740 5742 5743 5743 5744 5743 5744 5744 5743 5743 5743 5746 5748 5748 5746 5745 5743 5743 5742 5741 5739 5738 5737
5771 5766 5766 5765 5762 5761 5760 5757 5756 5752 5750 5746 5743 5741 5739 5738 5735 5735 5735 5735 5737 5739 5741 5742 5742 5741 5739 5743 5742 5741 5742 5744 5746 5748 5748 5745 5743 5742 5741 5740 5739 5736 5735
5773 5768 5768 5765 5761 5760 5758 5757 5753 5752 5748 5744 5740 5737 5734 5734 5732 5732 5734 5736 5737 5737 5740 5742 5741 5740 5740 5738 5740 5739 5741 5743 5745 5746 5748 5745 5743 5742 5741 5738 5736 5735 5734
5771 5773 5771 5766 5761 5756 5754 5756 5753 5749 5747 5742 5738 5733 5733 5733 5731 5731 5733 5734 5735 5738 5739 5742 5739 5738 5737 5738 5737 5739 5739 5742 5742 5745 5746 5745 5744 5742 5740 5739 5735 5734 5734
5769 5771 5769 5764 5761 5757 5756 5753 5753 5750 5746 5741 5737 5733 5731 5724 5727 5733 5734 5735 5735 5735 5736 5737 5739 5738 5737 5736 5737 5738 5741 5741 5743 5744 5746 5745 5744 5743 5740 5738 5737 5735 5735
5767 5764 5766 5766 5760 5755 5752 5750 5750 5749 5747 5741 5736 5734 5732 5727 5722 5730 5733 5734 5734 5734 5735 5736 5737 5735 5733 5734 5736 5738 5738 5741 5743 5745 5747 5747 5746 5745 5742 5739 5737 5737 5735
5769 5764 5760 5762 5763 5757 5753 5752 5749 5747 5745 5743 5739 5735 5733 5732 5733 5731 5731 5731 5731 5731 5733 5734 5734 5734 5733 5735 5735 5736 5736 5739 5742 5744 5746 5746 5747 5745 5743 5739 5737 5735 5734
5765 5762 5759 5760 5760 5758 5753 5751 5750 5748 5747 5745 5742 5738 5734 5732 5732 5731 5730 5729 5727 5727 5729 5732 5732 5732 5733 5733 5732 5734 5735 5738 5741 5743 5744 5746 5746 5746 5744 5741 5739 5736 5733
5765 5763 5763 5762 5758 5755 5754 5751 5748 5745 5745 5744 5740 5738 5734 5729 5728 5728 5728 5727 5722 5724 5725 5727 5728 5729 5731 5730 5729 5729 5733 5737 5740 5742 5742 5744 5746 5745 5746 5745 5741 5738 5736
5767 5763 5762 5763 5760 5755 5753 5750 5748 5745 5743 5742 5739 5734 5730 5727 5724 5722 5722 5722 5719 5720 5722 5723 5724 5726 5728 5729 5727 5727 5729 5733 5737 5740 5741 5741 5743 5743 5744 5742 5742 5741 5739
5762 5761 5754 5756 5761 5759 5752 5749 5748 5748 5745 5741 5736 5731 5726 5722 5722 5721 5720 5717 5718 5717 5717 5720 5721 5722 5723 5725 5724 5724 5725 5729 5734 5738 5740 5741 5741 5744 5743 5741 5741 5741 5742
5762 5758 5759 5753 5759 5759 5755 5752 5748 5743 5741 5737 5731 5727 5722 5719 5718 5718 5715 5715 5714 5713 5714 5716 5717 5719 5721 5722 5721 5718 5716 5725 5732 5736 5741 5743 5742 5744 5744 5743 5742 5741 5742
5766 5760 5754 5755 5761 5762 5758 5751 5746 5740 5736 5734 5728 5723 5720 5719 5719 5718 5716 5714 5711 5708 5711 5713 5714 5714 5717 5718 5721 5718 5711 5713 5716 5730 5735 5741 5741 5742 5742 5742 5742 5742 5741
5770 5765 5759 5757 5759 5760 5755 5748 5743 5738 5734 5729 5723 5720 5719 5719 5718 5718 5716 5714 5711 5708 5707 5709 5709 5712 5714 5715 5715 5717 5718 5717 5712 5712 5728 5734 5736 5737 5738 5739 5740 5741 5741
5764 5764 5763 5763 5760 5757 5749 5744 5740 5739 5735 5728 5725 5721 5721 5719 5718 5719 5715 5713 5712 5709 5707 5706 5703 5705 5710 5716 5714 5715 5715 5715 5715 5712 5713 5722 5728 5735 5738 5738 5740 5741 5741
5772 5765 5769 5765 5760 5754 5746 5740 5735 5734 5730 5725 5719 5717 5716 5719 5719 5718 5716 5714 5712 5709 5708 5706 5704 5705 5709 5713 5715 5716 5716 5715 5715 5715 5715 5717 5723 5730 5735 5735 5736 5738 5738